Satellite: ISS
Catalog number: 25544
Epoch time:      08325.53404133
Element set:     693
Inclination:      051.6423 deg
RA of node:       294.9402 deg
Eccentricity:    0.0003904
Arg of perigee:   007.3379 deg
Mean anomaly:     098.1514 deg
Mean motion:   15.72500280 rev/day
Decay rate:     1.0212e-04 rev/day^2
Epoch rev:           57313
Checksum:              265

Satellite: CO-58
Catalog number: 28895
Epoch time:      08325.27331935
Element set:     174
Inclination:      098.0811 deg
RA of node:       215.4350 deg
Eccentricity:    0.0016726
Arg of perigee:   282.2808 deg
Mean anomaly:     077.6525 deg
Mean motion:   14.59716271 rev/day
Decay rate:        4.7e-07 rev/day^2
Epoch rev:           16325
Checksum:              321

Satellite: FALCON
Catalog number: 30776
Epoch time:      08325.20934408
Element set:     442
Inclination:      035.4343 deg
RA of node:       287.1814 deg
Eccentricity:    0.0001686
Arg of perigee:   291.4230 deg
Mean anomaly:     068.6307 deg
Mean motion:   15.03107565 rev/day
Decay rate:       4.20e-06 rev/day^2
Epoch rev:            9363
Checksum:              275

Satellite: MAST
Catalog number: 31126
Epoch time:      08325.58346766
Element set:     465
Inclination:      098.0201 deg
RA of node:       023.6089 deg
Eccentricity:    0.0094228
Arg of perigee:   206.6322 deg
Mean anomaly:     153.0047 deg
Mean motion:   14.53459153 rev/day
Decay rate:       -9.0e-08 rev/day^2
Epoch rev:            8473
Checksum:              288

Satellite: CAPE1
Catalog number: 31130
Epoch time:      08324.45036426
Element set:     457
Inclination:      098.0217 deg
RA of node:       021.1806 deg
Eccentricity:    0.0102133
Arg of perigee:   214.1688 deg
Mean anomaly:     145.2917 deg
Mean motion:   14.52010020 rev/day
Decay rate:       1.38e-06 rev/day^2
Epoch rev:            8425
Checksum:              241

Satellite: COMPASS
Catalog number: 32787
Epoch time:      08325.81571437
Element set:     205
Inclination:      097.9702 deg
RA of node:       025.1011 deg
Eccentricity:    0.0015516
Arg of perigee:   353.8718 deg
Mean anomaly:     006.2296 deg
Mean motion:   14.81501475 rev/day
Decay rate:       4.78e-06 rev/day^2
Epoch rev:            3059
Checksum:              291

Satellite: AAUSAT2
Catalog number: 32788
Epoch time:      08325.39515681
Element set:     205
Inclination:      097.9726 deg
RA of node:       024.7112 deg
Eccentricity:    0.0015308
Arg of perigee:   357.0784 deg
Mean anomaly:     003.0344 deg
Mean motion:   14.81613527 rev/day
Decay rate:       2.30e-06 rev/day^2
Epoch rev:            3053
Checksum:              278

Satellite: DO-64
Catalog number: 32789
Epoch time:      08325.81548447
Element set:     216
Inclination:      097.9749 deg
RA of node:       025.1842 deg
Eccentricity:    0.0015477
Arg of perigee:   353.2172 deg
Mean anomaly:     006.8825 deg
Mean motion:   14.81537517 rev/day
Decay rate:       6.16e-06 rev/day^2
Epoch rev:            3059
Checksum:              332

Satellite: CO-66
Catalog number: 32791
Epoch time:      08325.22788087
Element set:     199
Inclination:      097.9742 deg
RA of node:       024.5413 deg
Eccentricity:    0.0016109
Arg of perigee:   353.8736 deg
Mean anomaly:     006.2262 deg
Mean motion:   14.81347629 rev/day
Decay rate:       3.03e-06 rev/day^2
Epoch rev:            3047
Checksum:              315

Satellite: RS-30
Catalog number: 32953
Epoch time:      08324.67490779
Element set:     162
Inclination:      082.5046 deg
RA of node:       026.8958 deg
Eccentricity:    0.0017742
Arg of perigee:   275.3908 deg
Mean anomaly:     084.5155 deg
Mean motion:   12.42998160 rev/day
Decay rate:        1.0e-07 rev/day^2
Epoch rev:            2236
Checksum:              313

/EX



_______________________________________________
Via the Keps mailing list courtesy of AMSAT-NA
http://amsat.org/mailman/listinfo/keps

--- ViaMAIL!/WC v1.60d
 * Origin: Chowdanet (401-724-4410) telnet://chowdanet.com  (1:323/120)